UM5-EOSAT (60555 NORAD) Tracking and Keplerian Element Data

This shows tracking and keplerian element data for the satellite.

Feedback or suggestion? Click here.




ElementValue
Catalog60555
NameUM5-EOSAT
Epoch Orbit849
Epoch Day286.76704679
Epoch Year2024
RAAN1.4422
Inclination97.7434
Eccentricity0.0008176
Argument of Perigee341.1842
Mean Anonmoly18.9075
Mean Motion14.94517257
Decay Rate0.0001206
L11 60555U 24149CR 24286.76704679 .00012060 00000+0 11198-2 0 9999
L22 60555 97.7434 1.4422 0008176 341.1842 18.9075 14.94517257 8491



Live tracking and technical data element details for UM5-EOSAT (NORAD 60555). UM5-EOSAT can be tracked NOW for your location showing map with azimuth and elevation plus other details from your city location.







IsCatalogInMostPopularTable: catalog: 60555, numindb: 3
Update: records affected: 1



GetName: 60555 UM5-EOSAT

Hit Count: updated at: Wed, 04 Dec 2024 18:31:41 GMT